Regional Weather Roundup
Issued by NWS

Home | Current Version | Previous Version | Text Only | Print | Product List | Glossary Off
Versions: 1 2 3 4 5 6 7 8 9 10 11 12 13 14 15 16 17 18 19 20 21 22 23 24 25 26 27 28 29 30 31 32 33 34 35 36 37 38 39 40 41 42 43 44 45 46 47 48 49 50

000
ASUS43 KLOT 231509
RWRIL

ILLINOIS REGIONAL WEATHER ROUNDUP
NATIONAL WEATHER SERVICE CHICAGO/ROMEOVILLE IL
1000 AM CDT FRI JUN 23 2017

NOTE: "FAIR" INDICATES FEW OR NO CLOUDS BELOW 12,000 FEET WITH NO
SIGNIFICANT WEATHER AND/OR OBSTRUCTIONS TO VISIBILITY.

* THESE STATIONS ARE NOT UNDER NWS QUALITY CONTROL. THEY ALSO MAY NOT
  REPORT WEATHER SUCH AS PRECIPITATION OR FOG.

ILZ001-002-007-009-015-016-024-231600-
NORTHWEST ILLINOIS

CITY           SKY/WX    TMP DP  RH WIND       PRES   REMARKS
MOLINE         CLOUDY    74  59  59 NW9       29.76S
STERLING*      PTSUNNY   72  64  76 NW9       29.75F
SAVANNA*       CLOUDY    72  64  75 NW7       29.76F
$$

ILZ003-004-008-010-011-017-018-231600-
NORTH CENTRAL ILLINOIS

CITY           SKY/WX    TMP DP  RH WIND       PRES   REMARKS
ROCKFORD       CLOUDY    73  61  65 N9        29.75S
FREEPORT*      MOSUNNY   71  62  74 NW6       29.77F
ROCHELLE*      CLOUDY    70  63  79 N9        29.74F
DE KALB*       CLOUDY    68  62  79 N9        29.74S
PERU*          CLOUDY    70  62  76 N13       29.73R
$$

ILZ005-006-012>014-019>023-231600-
NORTHEAST ILLINOIS

CITY           SKY/WX    TMP DP  RH WIND       PRES   REMARKS
CHICAGO-OHARE  CLOUDY    71  61  70 N8        29.70S
CHICAGO-MIDWAY CLOUDY    71  64  78 N8        29.69F
AURORA         CLOUDY    70  65  84 N13       29.73R
LANSING*       CLOUDY    66  63  89 N6        29.68F
JOLIET*        CLOUDY    73  67  84 N9        29.69F
WAUKEGAN       CLOUDY    70  62  76 NW7       29.69F
DUPAGE AIRPORT PTSUNNY   70  63  78 N12       29.71R
WHEELING       CLOUDY    70  64  81 NW10      29.71F
MORRIS*        PTSUNNY   71  64  80 N5        29.68F
ROMEOVILLE*    CLOUDY    71  62  73 N9        29.70F
NORTHERLY ISL    N/A     67  62  84 MISG        N/A
$$

LMZ740>746-231600-
SOUTHERN LAKE MICHIGAN

STATION/POSITION SKY/WX   TEMP    WIND        PRES    VSBY  WAVE
                          AIR SEA DIR/SP/G                  HT/PER
                          (F)     (DEG/KT/KT) (MB)    (MI)  (FT/S)
SOUTHERN BUOY              62 61  300/  4/  6 1004.8          1/ 4
WILMETTE HARBOR            65 64  310/  4/  6   N/A           1/ 3
HARRISON CRIB              66     330/  7/  7   N/A
BURNHAM HARBOR             68                   N/A
CALUMET HARBOR             67     360/  4/  6 1005.4F
BURNS HARBOR               65      20/  6/ 10 1006.4S
MICHIGAN CITY              66     340/  9/ 10   N/A
MICHIGAN CITY 6N           67 68   40/  4/  6   N/A           2/ 3
ST. JOSEPH                 66 68  350/  8/ 12 1005.1          2/ 3
$$

ILZ025>027-034>036-040-047-049-050-058-095>099-231600-
WEST-CENTRAL ILLINOIS

CITY           SKY/WX    TMP DP  RH WIND       PRES   REMARKS
QUINCY         PTSUNNY   73  68  84 N20G25    29.76R
GALESBURG*     CLOUDY    71  64  79 N14       29.77R
MACOMB*        PTSUNNY   71  66  82 N18       29.77R
JACKSONVILLE*  CLOUDY    76  71  83 N10G18    29.70R
PITTSFIELD*    CLOUDY    75  71  87 N12       29.75R
$$

ILZ028>032-037-038-041>044-048-051>054-059>061-231600-
CENTRAL ILLINOIS

CITY           SKY/WX    TMP DP  RH WIND       PRES   REMARKS
PONTIAC        CLOUDY    71  70  96 N12       29.68F
BLOOMINGTON    CLOUDY    73  67  81 N13G23    29.69F
DECATUR        CLOUDY    75  73  93 S3        29.65F
PEORIA         PTSUNNY   71  68  90 N9        29.72R
LACON*         CLOUDY    71  67  86 N7        29.72R
LINCOLN*       CLOUDY    75  70  84 N10G17    29.69R
SPRINGFIELD    PTSUNNY   79  71  76 N13       29.69R HX  82
TAYLORVILLE    CLOUDY    78  74  87 CALM      29.65F HX  80
$$

ILZ033-039-045-046-055>057-062-063-231600-
EAST-CENTRAL ILLINOIS

CITY           SKY/WX    TMP DP  RH WIND       PRES   REMARKS
CHAMPAIGN      CLOUDY    73  68  84 NE8       29.69S
RANTOUL*       CLOUDY    73  71  92 CALM      29.67F
MATTOON        HVY RAIN  72  72 100 SW7       29.68F VSB 1
PARIS*         TSTM      72  71  97 W14G21    29.71R
$$

ILZ079-100>102-231600-
SOUTHWEST ILLINOIS

CITY           SKY/WX    TMP DP  RH WIND       PRES   REMARKS
ALTON          PTSUNNY   79  72  78 SW6       29.68S HX  82
BELLEVILLE     PTSUNNY   81  75  81 SW10      29.67F HX  87
CAHOKIA*       CLOUDY    81  73  76 S8        29.65F HX  86
SPARTA*        CLOUDY    74  73  96 S7        29.72F
$$

ILZ064>066-069>071-074>076-080>082-084>086-088>090-092>094-231600-
SOUTH-CENTRAL ILLINOIS

CITY           SKY/WX    TMP DP  RH WIND       PRES   REMARKS
CARBONDALE     LGT RAIN  75  75 100 W7        29.73R FOG
CAIRO*         RAIN      74  73  98 SE3       29.71F
EFFINGHAM*     CLOUDY    77  76  95 SE3       29.71F
MARION         LGT RAIN  77  75  94 SW5       29.74S
MT. VERNON     RAIN      73  73 100 SW9       29.72F FOG
CENTRALIA*     CLOUDY    75  73  92 S12       29.71S
SALEM*         CLOUDY    77  73  87 S10       29.71S
METROPOLIS*    HVY RAIN  74  73  97 S8        29.72F
$$

ILZ067-068-072-073-078-083-087-091-231600-
SOUTHEAST ILLINOIS

CITY           SKY/WX    TMP DP  RH WIND       PRES   REMARKS
LAWRENCEVILLE  HVY RAIN  74  74 100 S8        29.74S FOG
FLORA*         LGT RAIN N/A N/A N/A S7        29.72S
FAIRFIELD*     RAIN      73  73 100 CALM      29.72S
HARRISBURG*    HVY RAIN  75  74  98 SW7       29.73S
ROBINSON*      CLOUDY    74  73  96 S13G18    29.73S
CARMI*         LGT RAIN  74  74 100 SW12      29.72S
$$

ABBREVIATIONS USED IN REMARKS
   TC - TEMPERATURE IN CELSIUS
  WCI - WIND CHILL INDEX
   HX - HEAT INDEX
  VSB - VISIBILITY
$$




USA.gov is the U.S. government's official web portal to all federal, state and local government web resources and services.